Change the Weather History Date:

Friday, August 2, 2013

  Actual Average Record
Temperature  
Mean Temperature 76 °F -  
Max Temperature 82 °F 81 °F 84 °F (1996)
Min Temperature 69 °F 67 °F 63 °F (2008)
Cooling Degree Days 10    
Growing Degree Days 26 (Base 50)    
Moisture  
Dew Point 66 °F    
Average Humidity 81    
Maximum Humidity 91    
Minimum Humidity 54    
Precipitation  
Precipitation 0.05 in - - ()
Sea Level Pressure  
Sea Level Pressure 30.02 in    
Wind  
Wind Speed 3 mph (NE)    
Max Wind Speed 14 mph    
Max Gust Speed 21 mph    
Visibility 10 miles    
Events Rain    
Averages and records for this station are not official NWS values.
T = Trace of Precipitation, MM = Missing Value Source: NWS Daily Summary

Daily Weather History Graph

Daily Weather History Graph

Search for Another Location

Airport or City:

Trip Planner

Search our weather history database for the weather conditions in past years. The results will help you decide how hot, cold, wet, or windy it might be!

Date:

Astronomy

Aug. 02, 2013 Rise Set
Actual Time 6:05 AM HST 7:10 PM HST
Civil Twilight 5:42 AM HST 7:34 PM HST
Nautical Twilight 5:14 AM HST 8:02 PM HST
Astronomical Twilight 4:45 AM HST 8:30 PM HST
Moon 2:41 AM HST (8/2) 4:11 PM HST (8/2)
Length of Visible Light 13h 52m
Length of Day
13h 04m
Waning Crescent, 14% of the Moon is Illuminated
Aug 2
Waning Crescent
Aug 6
New
Aug 14
First Quarter
Aug 20
Full
Aug 27
Last Quarter

Hourly Weather History & Observations

Time (HST) Temp. Heat Index Dew Point Humidity Pressure Visibility Wind Dir Wind Speed Gust Speed Precip Events Conditions
12:47 AM 69.8 °F - 66.2 °F 88% 30.04 in 10.0 mi Calm Calm - N/A   Mostly Cloudy
12:51 AM 69.8 °F - 66.2 °F 88% 30.04 in 10.0 mi Calm Calm - N/A   Light Drizzle
12:55 AM 70.0 °F - 66.0 °F 87% 30.04 in 6.0 mi WNW 3.5 mph - 0.00 in Rain Rain
1:20 AM 69.8 °F - 66.2 °F 88% 30.03 in 7.0 mi WNW 3.5 mph - N/A Rain Light Rain
1:28 AM 69.8 °F - 66.2 °F 88% 30.03 in 10.0 mi Calm Calm - N/A   Light Drizzle
1:38 AM 69.8 °F - 66.2 °F 88% 30.03 in 10.0 mi Calm Calm - N/A   Light Drizzle
1:40 AM 69.8 °F - 66.2 °F 88% 30.03 in 10.0 mi Calm Calm - N/A   Light Drizzle
1:48 AM 69.8 °F - 66.2 °F 88% 30.03 in 10.0 mi Calm Calm - N/A   Scattered Clouds
1:55 AM 69.4 °F - 66.7 °F 91% 30.02 in 10.0 mi Calm Calm - 0.01 in   Scattered Clouds
2:55 AM 69.4 °F - 66.0 °F 89% 30.00 in 10.0 mi West 3.5 mph - N/A   Mostly Cloudy
3:36 AM 71.6 °F - 66.2 °F 83% 30.00 in 10.0 mi East 3.5 mph - N/A   Light Drizzle
3:50 AM 71.6 °F - 66.2 °F 83% 30.00 in 10.0 mi NNE 4.6 mph - N/A   Mostly Cloudy
3:52 AM 71.6 °F - 66.2 °F 83% 30.00 in 10.0 mi NNE 5.8 mph - N/A   Light Drizzle
3:55 AM 71.1 °F - 66.7 °F 86% 30.01 in 10.0 mi NNE 3.5 mph - 0.00 in   Light Drizzle
4:01 AM 71.6 °F - 66.2 °F 83% 30.01 in 10.0 mi Calm Calm - N/A   Scattered Clouds
4:04 AM 71.6 °F - 66.2 °F 83% 30.00 in 10.0 mi Calm Calm - N/A   Light Drizzle
4:13 AM 69.8 °F - 66.2 °F 88% 30.00 in 10.0 mi Variable 3.5 mph - N/A   Partly Cloudy
4:24 AM 69.8 °F - 66.2 °F 88% 30.00 in 10.0 mi West 3.5 mph - N/A   Light Drizzle
4:43 AM 69.8 °F - 66.2 °F 88% 30.00 in 10.0 mi NE 3.5 mph - N/A   Mostly Cloudy
4:55 AM 70.7 °F - 67.1 °F 88% 30.00 in 10.0 mi North 3.5 mph - 0.01 in   Mostly Cloudy
4:57 AM 69.8 °F - 66.2 °F 88% 30.00 in 10.0 mi NNW 3.5 mph - N/A   Light Drizzle
5:07 AM 69.8 °F - 66.2 °F 88% 30.00 in 10.0 mi WNW 3.5 mph - N/A   Mostly Cloudy
5:55 AM 70.3 °F - 66.7 °F 88% 30.01 in 10.0 mi Calm Calm - 0.00 in   Light Drizzle
6:04 AM 69.8 °F - 66.2 °F 88% 30.02 in 10.0 mi Calm Calm - N/A   Mostly Cloudy
6:11 AM 71.6 °F - 66.2 °F 83% 30.02 in 10.0 mi Calm Calm - N/A   Light Drizzle
6:21 AM 71.6 °F - 66.2 °F 83% 30.02 in 10.0 mi NE 3.5 mph - N/A   Mostly Cloudy
6:26 AM 71.6 °F - 66.2 °F 83% 30.02 in 10.0 mi Calm Calm - N/A   Light Drizzle
6:37 AM 71.6 °F - 66.2 °F 83% 30.02 in 10.0 mi Calm Calm - N/A   Mostly Cloudy
6:42 AM 71.6 °F - 66.2 °F 83% 30.03 in 10.0 mi Calm Calm - N/A   Light Drizzle
6:51 AM 71.6 °F - 66.2 °F 83% 30.03 in 10.0 mi Calm Calm - N/A   Mostly Cloudy
6:55 AM 71.2 °F - 66.6 °F 85% 30.03 in 10.0 mi North 3.5 mph - 0.00 in   Mostly Cloudy
7:18 AM 71.6 °F - 68.0 °F 88% 30.03 in 10.0 mi North 4.6 mph - N/A   Light Drizzle
7:29 AM 71.6 °F - 66.2 °F 83% 30.03 in 10.0 mi Calm Calm - N/A   Mostly Cloudy
7:55 AM 73.6 °F - 67.3 °F 81% 30.03 in 10.0 mi Calm Calm - 0.00 in   Scattered Clouds
8:55 AM 76.8 °F - 66.6 °F 70% 30.03 in 10.0 mi Variable 4.6 mph - N/A   Scattered Clouds
10:55 AM 80.1 °F 81.7 °F 64.0 °F 58% 30.03 in 10.0 mi ESE 9.2 mph 16.1 mph N/A   Scattered Clouds
11:55 AM 81.7 °F 83.3 °F 64.4 °F 56% 30.02 in 10.0 mi ENE 13.8 mph - N/A   Mostly Cloudy
12:55 PM 81.9 °F 83.4 °F 64.2 °F 55% 30.00 in 10.0 mi ENE 10.4 mph 20.7 mph N/A   Overcast
1:55 PM 82.6 °F 84.3 °F 65.1 °F 55% 29.99 in 10.0 mi ENE 11.5 mph - N/A   Scattered Clouds
2:55 PM 81.5 °F 82.8 °F 63.3 °F 54% 29.98 in 10.0 mi ENE 11.5 mph 20.7 mph N/A   Mostly Cloudy
3:55 PM 80.4 °F 81.7 °F 63.1 °F 55% 29.97 in 10.0 mi NE 9.2 mph - N/A   Mostly Cloudy
4:55 PM 80.2 °F 81.6 °F 63.1 °F 56% 29.98 in 10.0 mi East 8.1 mph - N/A   Clear
5:55 PM 77.7 °F - 65.7 °F 66% 29.99 in 10.0 mi NE 10.4 mph - N/A   Mostly Cloudy
6:55 PM 75.7 °F - 65.5 °F 70% 30.00 in 10.0 mi NNE 6.9 mph - N/A   Scattered Clouds
7:05 PM 75.2 °F - 66.2 °F 73% 30.00 in 9.0 mi NE 9.2 mph - N/A Rain Light Rain
7:41 PM 73.4 °F - 66.2 °F 78% 30.01 in 8.0 mi ENE 9.2 mph - N/A Rain Light Rain
7:55 PM 72.7 °F - 66.7 °F 82% 30.01 in 9.0 mi NE 10.4 mph - 0.01 in   Light Drizzle
7:59 PM 73.4 °F - 68.0 °F 83% 30.01 in 10.0 mi NE 9.2 mph - N/A   Mostly Cloudy
8:39 PM 71.6 °F - 68.0 °F 88% 30.02 in 10.0 mi ENE 9.2 mph - N/A   Light Drizzle
8:55 PM 71.8 °F - 67.1 °F 85% 30.03 in 5.0 mi ENE 6.9 mph - 0.00 in Rain Light Rain
9:14 PM 71.6 °F - 68.0 °F 88% 30.03 in 10.0 mi NNE 6.9 mph - N/A   Scattered Clouds
9:55 PM 71.4 °F - 66.6 °F 85% 30.04 in 10.0 mi ENE 9.2 mph - 0.01 in   Scattered Clouds
10:07 PM 71.6 °F - 66.2 °F 83% 30.04 in 10.0 mi NE 6.9 mph - N/A   Light Drizzle
10:20 PM 71.6 °F - 66.2 °F 83% 30.04 in 10.0 mi NE 5.8 mph - N/A   Mostly Cloudy
10:23 PM 71.6 °F - 66.2 °F 83% 30.04 in 10.0 mi NE 5.8 mph - N/A   Light Drizzle
10:33 PM 71.6 °F - 66.2 °F 83% 30.04 in 10.0 mi ENE 4.6 mph - N/A   Scattered Clouds
10:55 PM 71.1 °F - 66.7 °F 86% 30.04 in 10.0 mi ENE 3.5 mph - 0.01 in   Clear
11:55 PM 69.1 °F - 65.8 °F 89% 30.03 in 10.0 mi NW 4.6 mph - N/A   Clear